Time,TemperatureF,DewpointF,PressureIn,WindDirection,WindDirectionDegrees,WindSpeedMPH,WindSpeedGustMPH,Humidity,HourlyPrecipIn,Conditions,Clouds,dailyrainin,SolarRadiationWatts/m^2,SoftwareType,DateUTC
2013-04-29 00:01:00,41.4,35.4,29.99,WSW,243,5.0,6.0,79,0.00,RA,,0.00,0.0,WeatherDisplay:10.37,2013-04-28 23:01:00,
2013-04-29 00:11:00,41.0,35.3,29.99,WSW,243,5.0,8.0,80,0.00,CLR,,0.00,0.0,WeatherDisplay:10.37,2013-04-28 23:11:00,
2013-04-29 00:16:00,41.1,35.7,29.99,WSW,246,6.0,9.0,81,0.00,CLR,,0.00,0.0,WeatherDisplay:10.37,2013-04-28 23:16:00,
2013-04-29 00:21:00,41.4,35.7,29.99,WSW,250,6.0,9.0,80,0.00,CLR,,0.00,0.0,WeatherDisplay:10.37,2013-04-28 23:21:00,
2013-04-29 00:31:00,42.4,36.4,30.00,West,268,6.0,13.0,79,0.00,CLR,,0.00,0.0,WeatherDisplay:10.37,2013-04-28 23:31:00,
2013-04-29 00:41:00,43.0,37.0,30.00,WNW,282,5.0,13.0,79,0.00,CLR,,0.00,0.0,WeatherDisplay:10.37,2013-04-28 23:41:00,
2013-04-29 00:46:00,42.9,36.8,30.00,West,279,6.0,12.0,79,0.00,CLR,,0.00,0.0,WeatherDisplay:10.37,2013-04-28 23:46:00,
2013-04-29 00:56:00,42.5,36.7,30.00,WNW,282,5.0,6.0,80,0.00,CLR,,0.00,0.0,WeatherDisplay:10.37,2013-04-28 23:56:00,
2013-04-29 01:01:00,42.3,36.6,30.00,West,279,5.0,10.0,80,0.00,CLR,,0.00,0.0,WeatherDisplay:10.37,2013-04-29 00:01:00,
2013-04-29 01:11:00,42.4,36.7,30.01,WSW,256,7.0,10.0,80,0.00,CLR,,0.00,0.0,WeatherDisplay:10.37,2013-04-29 00:11:00,
2013-04-29 01:16:00,42.6,37.2,30.02,West,264,9.0,21.0,81,0.00,CLR,,0.00,0.0,WeatherDisplay:10.37,2013-04-29 00:16:00,
2013-04-29 01:21:00,42.6,37.8,30.01,West,268,8.0,16.0,83,0.00,CLR,,0.00,0.0,WeatherDisplay:10.37,2013-04-29 00:21:00,
2013-04-29 01:31:00,41.8,37.4,30.01,West,265,6.0,10.0,84,0.00,CLR,,0.00,0.0,WeatherDisplay:10.37,2013-04-29 00:31:00,
2013-04-29 01:41:00,41.5,37.0,30.01,WSW,240,6.0,10.0,84,0.00,CLR,,0.00,0.0,WeatherDisplay:10.37,2013-04-29 00:41:00,
2013-04-29 01:46:00,41.4,36.6,30.01,WSW,249,6.0,10.0,83,0.00,CLR,,0.00,0.0,WeatherDisplay:10.37,2013-04-29 00:46:00,
2013-04-29 01:51:00,41.3,36.6,30.01,West,261,6.0,12.0,83,0.00,CLR,,0.00,0.0,WeatherDisplay:10.37,2013-04-29 00:51:00,
2013-04-29 01:56:00,41.5,36.7,30.01,WSW,255,5.0,12.0,83,0.00,CLR,,0.00,0.0,WeatherDisplay:10.37,2013-04-29 00:56:00,
2013-04-29 02:01:00,41.4,36.6,30.01,WSW,257,6.0,8.0,83,0.00,CLR,,0.00,0.0,WeatherDisplay:10.37,2013-04-29 01:01:00,
2013-04-29 02:11:00,41.8,37.0,30.01,WSW,241,5.0,7.0,83,0.00,CLR,,0.00,0.0,WeatherDisplay:10.37,2013-04-29 01:11:00,
2013-04-29 02:16:00,41.6,36.5,30.01,WSW,239,3.0,5.0,82,0.00,CLR,,0.00,0.0,WeatherDisplay:10.37,2013-04-29 01:16:00,
2013-04-29 02:21:00,41.1,35.8,30.01,WSW,239,3.0,5.0,81,0.00,CLR,,0.00,0.0,WeatherDisplay:10.37,2013-04-29 01:21:00,
2013-04-29 02:26:00,40.6,35.5,30.01,WSW,239,5.0,9.0,82,0.00,CLR,,0.00,0.0,WeatherDisplay:10.37,2013-04-29 01:26:00,
2013-04-29 02:31:00,40.8,36.9,30.01,WSW,257,8.0,14.0,86,0.00,CLR,,0.00,0.0,WeatherDisplay:10.37,2013-04-29 01:31:00,
2013-04-29 02:41:00,41.8,37.9,30.02,West,270,13.0,22.0,86,0.01,RA,,0.01,0.0,WeatherDisplay:10.37,2013-04-29 01:41:00,
2013-04-29 02:46:00,41.8,38.3,30.02,West,266,9.0,16.0,87,0.01,RA,,0.02,0.0,WeatherDisplay:10.37,2013-04-29 01:46:00,
2013-04-29 02:51:00,41.5,37.9,30.01,WSW,258,7.0,16.0,87,0.00,RA,,0.02,0.0,WeatherDisplay:10.37,2013-04-29 01:51:00,
2013-04-29 02:56:00,41.3,37.7,30.01,West,259,7.0,12.0,87,0.00,CLR,,0.02,0.0,WeatherDisplay:10.37,2013-04-29 01:56:00,
2013-04-29 03:06:00,40.9,37.1,30.01,West,273,6.0,9.0,86,0.00,CLR,,0.02,0.0,WeatherDisplay:10.37,2013-04-29 02:06:00,
2013-04-29 03:11:00,40.8,36.9,30.01,West,264,6.0,10.0,86,0.00,CLR,,0.02,0.0,WeatherDisplay:10.37,2013-04-29 02:11:00,
2013-04-29 03:16:00,40.6,36.8,30.01,WSW,249,7.0,10.0,86,0.00,CLR,,0.02,0.0,WeatherDisplay:10.37,2013-04-29 02:16:00,
2013-04-29 03:21:00,40.5,36.7,30.01,WSW,246,7.0,12.0,86,0.00,CLR,,0.02,0.0,WeatherDisplay:10.37,2013-04-29 02:21:00,
2013-04-29 03:31:00,40.6,37.0,30.01,WSW,248,8.0,12.0,87,0.00,CLR,,0.02,0.0,WeatherDisplay:10.37,2013-04-29 02:31:00,
2013-04-29 03:41:00,40.7,37.4,30.01,WSW,253,7.0,10.0,88,0.00,CLR,,0.02,0.0,WeatherDisplay:10.37,2013-04-29 02:41:00,
2013-04-29 03:46:00,40.9,39.0,30.02,WSW,255,7.0,9.0,93,0.00,CLR,,0.02,0.0,WeatherDisplay:10.37,2013-04-29 02:46:00,
2013-04-29 03:51:00,41.3,38.0,30.01,West,263,7.0,12.0,88,0.00,CLR,,0.02,0.0,WeatherDisplay:10.37,2013-04-29 02:51:00,
2013-04-29 03:56:00,41.4,38.1,30.01,West,269,7.0,12.0,88,0.00,CLR,,0.02,0.0,WeatherDisplay:10.37,2013-04-29 02:56:00,
2013-04-29 04:01:00,41.4,37.8,30.01,West,275,7.0,10.0,87,0.00,CLR,,0.02,0.0,WeatherDisplay:10.37,2013-04-29 03:01:00,
2013-04-29 04:11:00,41.5,37.9,30.01,West,259,7.0,13.0,87,0.00,CLR,,0.02,0.0,WeatherDisplay:10.37,2013-04-29 03:11:00,
2013-04-29 04:16:00,41.4,37.5,30.01,West,265,7.0,13.0,86,0.00,CLR,,0.02,0.0,WeatherDisplay:10.37,2013-04-29 03:16:00,
2013-04-29 04:21:00,41.3,37.7,30.01,West,264,9.0,12.0,87,0.00,CLR,,0.02,0.0,WeatherDisplay:10.37,2013-04-29 03:21:00,
2013-04-29 04:31:00,41.4,37.5,30.01,West,262,8.0,14.0,86,0.00,CLR,,0.02,0.0,WeatherDisplay:10.37,2013-04-29 03:31:00,
2013-04-29 04:41:00,41.9,37.7,30.01,West,261,8.0,16.0,85,0.00,CLR,,0.02,0.0,WeatherDisplay:10.37,2013-04-29 03:41:00,
2013-04-29 04:46:00,42.0,37.5,30.01,West,267,9.0,20.0,84,0.00,CLR,,0.02,0.0,WeatherDisplay:10.37,2013-04-29 03:46:00,
2013-04-29 04:56:00,42.0,37.2,30.01,West,262,8.0,15.0,83,0.00,CLR,,0.02,0.0,WeatherDisplay:10.37,2013-04-29 03:56:00,
2013-04-29 05:01:00,41.8,36.7,30.01,WSW,258,10.0,15.0,82,0.00,CLR,,0.02,0.0,WeatherDisplay:10.37,2013-04-29 04:01:00,
2013-04-29 05:06:00,41.8,36.7,30.02,WSW,252,9.0,16.0,82,0.00,CLR,,0.02,0.0,WeatherDisplay:10.37,2013-04-29 04:06:00,
2013-04-29 05:11:00,41.7,36.9,30.01,WSW,254,9.0,16.0,83,0.00,CLR,,0.02,0.0,WeatherDisplay:10.37,2013-04-29 04:11:00,
2013-04-29 05:16:00,41.7,36.9,30.01,WSW,258,7.0,14.0,83,0.00,CLR,,0.02,0.0,WeatherDisplay:10.37,2013-04-29 04:16:00,
2013-04-29 05:26:00,41.8,37.0,30.01,WSW,258,9.0,14.0,83,0.00,CLR,,0.02,0.0,WeatherDisplay:10.37,2013-04-29 04:26:00,
2013-04-29 05:31:00,41.9,37.1,30.02,WSW,256,7.0,13.0,83,0.00,CLR,,0.02,0.0,WeatherDisplay:10.37,2013-04-29 04:31:00,
2013-04-29 05:41:00,41.8,37.0,30.02,WSW,249,8.0,15.0,83,0.00,CLR,,0.02,0.0,WeatherDisplay:10.37,2013-04-29 04:41:00,
2013-04-29 05:46:00,41.5,36.7,30.02,WSW,250,8.0,13.0,83,0.00,CLR,,0.02,0.0,WeatherDisplay:10.37,2013-04-29 04:46:00,
2013-04-29 05:51:00,41.3,36.8,30.02,WSW,248,7.0,13.0,84,0.00,CLR,,0.02,0.0,WeatherDisplay:10.37,2013-04-29 04:51:00,
2013-04-29 05:56:00,41.3,36.8,30.02,WSW,250,7.0,12.0,84,0.00,CLR,,0.02,0.0,WeatherDisplay:10.37,2013-04-29 04:56:00,
2013-04-29 06:01:00,41.3,37.1,30.02,WSW,252,6.0,13.0,85,0.00,OVC,,0.02,0.0,WeatherDisplay:10.37,2013-04-29 05:01:00,
2013-04-29 06:11:00,41.4,37.5,30.03,WSW,245,7.0,12.0,86,0.00,OVC,,0.02,5.0,WeatherDisplay:10.37,2013-04-29 05:11:00,
2013-04-29 06:16:00,41.4,37.5,30.03,WSW,253,8.0,12.0,86,0.00,SCT,,0.02,5.0,WeatherDisplay:10.37,2013-04-29 05:16:00,
2013-04-29 06:21:00,41.7,37.6,30.03,West,259,9.0,18.0,85,0.00,BKN,,0.02,7.0,WeatherDisplay:10.37,2013-04-29 05:21:00,
2013-04-29 06:31:00,42.1,37.6,30.03,WSW,257,8.0,15.0,84,0.00,SCT,,0.02,21.0,WeatherDisplay:10.37,2013-04-29 05:31:00,
2013-04-29 06:41:00,41.9,37.5,30.03,West,260,8.0,14.0,84,0.00,SCT,,0.02,28.0,WeatherDisplay:10.37,2013-04-29 05:41:00,
2013-04-29 06:46:00,42.2,37.4,30.03,West,259,7.0,13.0,83,0.00,CLR,,0.02,54.0,WeatherDisplay:10.37,2013-04-29 05:46:00,
2013-04-29 06:51:00,42.4,37.3,30.04,West,259,7.0,13.0,82,0.00,CLR,,0.02,56.0,WeatherDisplay:10.37,2013-04-29 05:51:00,
2013-04-29 07:01:00,42.7,37.6,30.05,WSW,255,8.0,12.0,82,0.00,CLR,,0.02,121.0,WeatherDisplay:10.37,2013-04-29 06:01:00,
2013-04-29 07:11:00,42.8,38.3,30.06,West,261,7.0,12.0,84,0.02,RA,,0.03,21.0,WeatherDisplay:10.37,2013-04-29 06:11:00,
2013-04-29 07:21:00,42.3,38.7,30.05,WSW,247,7.0,9.0,87,0.00,FEW,,0.03,171.0,WeatherDisplay:10.37,2013-04-29 06:21:00,
2013-04-29 07:31:00,42.5,38.9,30.05,WSW,245,7.0,10.0,87,0.00,CLR,,0.03,144.0,WeatherDisplay:10.37,2013-04-29 06:31:00,
2013-04-29 07:41:00,42.8,39.2,30.06,SW,233,7.0,10.0,87,0.00,CLR,,0.03,260.0,WeatherDisplay:10.37,2013-04-29 06:41:00,
2013-04-29 07:51:00,43.4,39.8,30.06,SW,235,9.0,12.0,87,0.00,SCT,,0.03,56.0,WeatherDisplay:10.37,2013-04-29 06:51:00,
2013-04-29 08:01:00,43.6,40.0,30.06,SW,233,8.0,13.0,87,0.00,SCT,,0.03,183.0,WeatherDisplay:10.37,2013-04-29 07:01:00,
2013-04-29 08:11:00,44.4,40.4,30.07,WSW,256,8.0,12.0,86,0.00,CLR,,0.03,264.0,WeatherDisplay:10.37,2013-04-29 07:11:00,
2013-04-29 08:16:00,44.8,40.3,30.07,West,261,9.0,14.0,84,0.00,CLR,,0.03,285.0,WeatherDisplay:10.37,2013-04-29 07:16:00,
2013-04-29 08:21:00,45.3,40.5,30.07,WSW,258,7.0,15.0,83,0.00,CLR,,0.03,304.0,WeatherDisplay:10.37,2013-04-29 07:21:00,
2013-04-29 08:31:00,46.2,40.7,30.07,WSW,256,7.0,14.0,81,0.00,CLR,,0.03,329.0,WeatherDisplay:10.37,2013-04-29 07:31:00,
2013-04-29 08:41:00,47.2,41.6,30.07,WSW,252,10.0,14.0,81,0.00,CLR,,0.03,387.0,WeatherDisplay:10.37,2013-04-29 07:41:00,
2013-04-29 08:46:00,46.9,40.8,30.07,WSW,250,8.0,15.0,79,0.00,FEW,,0.03,70.0,WeatherDisplay:10.37,2013-04-29 07:46:00,
2013-04-29 08:51:00,46.6,40.4,30.07,West,261,8.0,15.0,79,0.00,FEW,,0.03,364.0,WeatherDisplay:10.37,2013-04-29 07:51:00,
2013-04-29 09:01:00,47.4,40.6,30.07,West,259,12.0,18.0,77,0.00,CLR,,0.03,411.0,WeatherDisplay:10.37,2013-04-29 08:01:00,
2013-04-29 09:11:00,48.0,40.5,30.07,West,261,13.0,20.0,75,0.00,CLR,,0.03,443.0,WeatherDisplay:10.37,2013-04-29 08:11:00,
2013-04-29 09:16:00,48.4,41.2,30.08,West,268,9.0,18.0,76,0.00,CLR,,0.03,459.0,WeatherDisplay:10.37,2013-04-29 08:16:00,
2013-04-29 09:21:00,48.8,41.2,30.08,West,268,10.0,16.0,75,0.00,CLR,,0.03,506.0,WeatherDisplay:10.37,2013-04-29 08:21:00,
2013-04-29 09:31:00,48.9,40.7,30.08,West,262,10.0,18.0,73,0.00,CLR,,0.03,287.0,WeatherDisplay:10.37,2013-04-29 08:31:00,
2013-04-29 09:41:00,49.1,40.1,30.09,West,268,10.0,16.0,71,0.00,CLR,,0.03,591.0,WeatherDisplay:10.37,2013-04-29 08:41:00,
2013-04-29 09:46:00,49.4,40.7,30.10,West,274,12.0,21.0,72,0.00,CLR,,0.03,125.0,WeatherDisplay:10.37,2013-04-29 08:46:00,
2013-04-29 09:51:00,47.7,40.9,30.10,West,270,13.0,25.0,77,0.00,SCT,,0.03,185.0,WeatherDisplay:10.37,2013-04-29 08:51:00,
2013-04-29 10:01:00,46.0,41.1,30.10,West,260,8.0,16.0,83,0.00,FEW,,0.03,469.0,WeatherDisplay:10.37,2013-04-29 09:01:00,
2013-04-29 10:11:00,47.5,42.3,30.10,West,270,9.0,14.0,82,0.00,CLR,,0.03,696.0,WeatherDisplay:10.37,2013-04-29 09:11:00,
2013-04-29 10:16:00,48.6,42.4,30.11,West,279,10.0,17.0,79,0.00,CLR,,0.03,701.0,WeatherDisplay:10.37,2013-04-29 09:16:00,
2013-04-29 10:21:00,48.7,42.4,30.11,WNW,284,9.0,15.0,79,0.00,CLR,,0.03,292.0,WeatherDisplay:10.37,2013-04-29 09:21:00,
2013-04-29 10:31:00,49.3,41.7,30.11,West,280,13.0,20.0,75,0.00,CLR,,0.03,684.0,WeatherDisplay:10.37,2013-04-29 09:31:00,
2013-04-29 10:41:00,50.2,42.6,30.11,WNW,290,7.0,18.0,75,0.00,CLR,,0.03,856.0,WeatherDisplay:10.37,2013-04-29 09:41:00,
2013-04-29 10:46:00,50.3,41.6,30.11,West,277,8.0,16.0,72,0.00,CLR,,0.03,717.0,WeatherDisplay:10.37,2013-04-29 09:46:00,
2013-04-29 10:51:00,50.8,42.1,30.11,West,271,12.0,18.0,72,0.00,CLR,,0.03,719.0,WeatherDisplay:10.37,2013-04-29 09:51:00,
2013-04-29 11:01:00,51.3,41.1,30.12,West,275,14.0,22.0,68,0.00,CLR,,0.03,789.0,WeatherDisplay:10.37,2013-04-29 10:01:00,
2013-04-29 11:11:00,51.9,41.7,30.12,West,275,10.0,18.0,68,0.00,CLR,,0.03,868.0,WeatherDisplay:10.37,2013-04-29 10:11:00,
2013-04-29 11:16:00,52.2,41.2,30.12,West,269,13.0,20.0,66,0.00,CLR,,0.03,376.0,WeatherDisplay:10.37,2013-04-29 10:16:00,
2013-04-29 11:21:00,52.0,41.8,30.12,West,274,13.0,24.0,68,0.00,CLR,,0.03,905.0,WeatherDisplay:10.37,2013-04-29 10:21:00,
2013-04-29 11:31:00,51.5,42.4,30.12,WSW,257,10.0,18.0,71,0.00,CLR,,0.03,847.0,WeatherDisplay:10.37,2013-04-29 10:31:00,
2013-04-29 11:41:00,52.5,41.5,30.12,West,274,15.0,22.0,66,0.00,CLR,,0.03,800.0,WeatherDisplay:10.37,2013-04-29 10:41:00,
2013-04-29 11:46:00,52.6,41.9,30.12,West,273,12.0,22.0,67,0.00,CLR,,0.03,889.0,WeatherDisplay:10.37,2013-04-29 10:46:00,
2013-04-29 11:51:00,52.1,41.8,30.13,West,269,13.0,20.0,68,0.00,CLR,,0.03,227.0,WeatherDisplay:10.37,2013-04-29 10:51:00,
2013-04-29 12:01:00,52.2,42.7,30.13,West,272,9.0,17.0,70,0.00,CLR,,0.03,947.0,WeatherDisplay:10.37,2013-04-29 11:01:00,
2013-04-29 12:11:00,50.2,41.5,30.14,WNW,299,10.0,29.0,72,0.01,RA,,0.04,171.0,WeatherDisplay:10.37,2013-04-29 11:11:00,
2013-04-29 12:16:00,49.0,42.4,30.14,WNW,293,9.0,16.0,78,0.00,RA,,0.04,768.0,WeatherDisplay:10.37,2013-04-29 11:16:00,
2013-04-29 12:21:00,49.5,44.2,30.14,WNW,290,9.0,15.0,82,0.00,SCT,,0.04,786.0,WeatherDisplay:10.37,2013-04-29 11:21:00,
2013-04-29 12:31:00,51.0,43.0,30.14,WNW,290,14.0,24.0,74,0.00,CLR,,0.04,431.0,WeatherDisplay:10.37,2013-04-29 11:31:00,
2013-04-29 12:41:00,51.2,41.8,30.14,West,280,10.0,20.0,70,0.00,SCT,,0.04,881.0,WeatherDisplay:10.37,2013-04-29 11:41:00,
2013-04-29 12:46:00,51.5,42.1,30.14,WNW,283,13.0,18.0,70,0.00,CLR,,0.04,849.0,WeatherDisplay:10.37,2013-04-29 11:46:00,
2013-04-29 12:51:00,51.9,41.7,30.14,WNW,294,10.0,17.0,68,0.00,CLR,,0.04,1005.0,WeatherDisplay:10.37,2013-04-29 11:51:00,
2013-04-29 13:01:00,52.3,42.0,30.15,WNW,285,13.0,20.0,68,0.00,CLR,,0.04,949.0,WeatherDisplay:10.37,2013-04-29 12:01:00,
2013-04-29 13:11:00,52.8,40.9,30.15,West,277,10.0,22.0,64,0.00,CLR,,0.04,851.0,WeatherDisplay:10.37,2013-04-29 12:11:00,
2013-04-29 13:16:00,53.4,41.9,30.15,West,280,9.0,16.0,65,0.00,CLR,,0.04,988.0,WeatherDisplay:10.37,2013-04-29 12:16:00,
2013-04-29 13:21:00,52.7,41.2,30.16,WNW,291,15.0,25.0,65,0.00,CLR,,0.04,360.0,WeatherDisplay:10.37,2013-04-29 12:21:00,
2013-04-29 13:31:00,49.0,41.0,30.16,WNW,293,9.0,18.0,74,0.00,RA,,0.05,294.0,WeatherDisplay:10.37,2013-04-29 12:31:00,
2013-04-29 13:41:00,49.4,43.5,30.16,WNW,290,8.0,17.0,80,0.00,SCT,,0.05,939.0,WeatherDisplay:10.37,2013-04-29 12:41:00,
2013-04-29 13:46:00,50.5,44.2,30.16,West,279,8.0,15.0,79,0.00,CLR,,0.05,939.0,WeatherDisplay:10.37,2013-04-29 12:46:00,
2013-04-29 13:51:00,51.1,43.8,30.16,West,272,9.0,14.0,76,0.00,CLR,,0.05,366.0,WeatherDisplay:10.37,2013-04-29 12:51:00,
2013-04-29 14:01:00,51.6,43.6,30.16,West,280,10.0,20.0,74,0.00,SCT,,0.05,874.0,WeatherDisplay:10.37,2013-04-29 13:01:00,
2013-04-29 14:11:00,53.1,43.5,30.16,West,275,10.0,17.0,70,0.00,CLR,,0.05,962.0,WeatherDisplay:10.37,2013-04-29 13:11:00,
2013-04-29 14:16:00,53.6,43.2,30.17,West,279,7.0,15.0,68,0.00,CLR,,0.05,1004.0,WeatherDisplay:10.37,2013-04-29 13:16:00,
2013-04-29 14:21:00,54.5,43.7,30.17,WNW,284,10.0,15.0,67,0.00,CLR,,0.05,962.0,WeatherDisplay:10.37,2013-04-29 13:21:00,
2013-04-29 14:31:00,54.4,43.2,30.17,WNW,295,8.0,15.0,66,0.00,CLR,,0.05,895.0,WeatherDisplay:10.37,2013-04-29 13:31:00,
2013-04-29 14:41:00,54.1,42.6,30.16,WNW,285,8.0,15.0,65,0.00,CLR,,0.05,853.0,WeatherDisplay:10.37,2013-04-29 13:41:00,
2013-04-29 14:46:00,54.1,40.5,30.17,WNW,288,12.0,21.0,60,0.00,CLR,,0.05,837.0,WeatherDisplay:10.37,2013-04-29 13:46:00,
2013-04-29 14:51:00,54.0,40.0,30.17,WNW,292,12.0,25.0,59,0.00,CLR,,0.05,810.0,WeatherDisplay:10.37,2013-04-29 13:51:00,
2013-04-29 15:01:00,54.3,40.7,30.17,WNW,287,9.0,17.0,60,0.00,CLR,,0.05,940.0,WeatherDisplay:10.37,2013-04-29 14:01:00,
2013-04-29 15:11:00,54.7,40.7,30.17,WNW,286,8.0,20.0,59,0.00,CLR,,0.05,874.0,WeatherDisplay:10.37,2013-04-29 14:11:00,
2013-04-29 15:16:00,54.2,40.6,30.17,WNW,287,7.0,18.0,60,0.00,CLR,,0.05,309.0,WeatherDisplay:10.37,2013-04-29 14:16:00,
2013-04-29 15:21:00,54.6,41.0,30.17,WNW,299,10.0,20.0,60,0.00,FEW,,0.05,904.0,WeatherDisplay:10.37,2013-04-29 14:21:00,
2013-04-29 15:31:00,54.9,40.4,30.18,WNW,289,10.0,20.0,58,0.00,CLR,,0.05,965.0,WeatherDisplay:10.37,2013-04-29 14:31:00,
2013-04-29 15:41:00,54.7,40.6,30.18,WNW,294,12.0,24.0,59,0.00,FEW,,0.05,294.0,WeatherDisplay:10.37,2013-04-29 14:41:00,
2013-04-29 15:51:00,53.6,41.3,30.18,NW,307,7.0,18.0,63,0.00,SCT,,0.05,390.0,WeatherDisplay:10.37,2013-04-29 14:51:00,
2013-04-29 15:56:00,53.4,42.3,30.19,NW,317,8.0,20.0,66,0.00,SCT,,0.05,800.0,WeatherDisplay:10.37,2013-04-29 14:56:00,
2013-04-29 16:01:00,53.0,42.0,30.19,NW,310,6.0,12.0,66,0.00,CLR,,0.05,643.0,WeatherDisplay:10.37,2013-04-29 15:01:00,
2013-04-29 16:11:00,53.1,42.1,30.19,NW,305,7.0,13.0,66,0.00,FEW,,0.05,724.0,WeatherDisplay:10.37,2013-04-29 15:11:00,
2013-04-29 16:16:00,53.8,41.1,30.19,WNW,300,10.0,16.0,62,0.00,CLR,,0.05,719.0,WeatherDisplay:10.37,2013-04-29 15:16:00,
2013-04-29 16:21:00,53.6,40.0,30.19,West,272,9.0,17.0,60,0.00,FEW,,0.05,174.0,WeatherDisplay:10.37,2013-04-29 15:21:00,
2013-04-29 16:31:00,54.6,40.5,30.19,WNW,298,10.0,15.0,59,0.00,CLR,,0.05,809.0,WeatherDisplay:10.37,2013-04-29 15:31:00,
2013-04-29 16:40:00,53.7,40.6,30.19,NW,307,7.0,16.0,61,0.00,FEW,,0.05,448.0,WeatherDisplay:10.37,2013-04-29 15:40:00,
2013-04-29 16:45:00,53.4,40.7,30.19,NW,321,10.0,16.0,62,0.00,FEW,,0.05,408.0,WeatherDisplay:10.37,2013-04-29 15:45:00,
2013-04-29 16:50:00,53.0,41.1,30.19,NNW,329,7.0,16.0,64,0.00,CLR,,0.05,789.0,WeatherDisplay:10.37,2013-04-29 15:50:00,
2013-04-29 17:00:00,53.7,40.9,30.19,NW,311,7.0,13.0,62,0.00,CLR,,0.05,476.0,WeatherDisplay:10.37,2013-04-29 16:00:00,
2013-04-29 17:10:00,54.1,41.3,30.19,WNW,291,10.0,18.0,62,0.00,CLR,,0.05,571.0,WeatherDisplay:10.37,2013-04-29 16:10:00,
2013-04-29 17:15:00,54.0,41.3,30.20,WNW,288,8.0,15.0,62,0.00,CLR,,0.05,552.0,WeatherDisplay:10.37,2013-04-29 16:15:00,
2013-04-29 17:20:00,54.0,41.3,30.20,WNW,289,10.0,16.0,62,0.00,CLR,,0.05,577.0,WeatherDisplay:10.37,2013-04-29 16:20:00,
2013-04-29 17:30:00,54.0,39.5,30.20,WNW,301,8.0,15.0,58,0.00,CLR,,0.05,132.0,WeatherDisplay:10.37,2013-04-29 16:30:00,
2013-04-29 17:40:00,52.8,39.7,30.20,NW,318,7.0,14.0,61,0.00,FEW,,0.05,554.0,WeatherDisplay:10.37,2013-04-29 16:40:00,
2013-04-29 17:45:00,53.0,39.5,30.20,NW,314,8.0,14.0,60,0.00,CLR,,0.05,580.0,WeatherDisplay:10.37,2013-04-29 16:45:00,
2013-04-29 17:50:00,53.8,40.6,30.20,NW,307,7.0,17.0,61,0.00,CLR,,0.05,591.0,WeatherDisplay:10.37,2013-04-29 16:50:00,
2013-04-29 17:56:00,53.7,40.5,30.21,NW,313,12.0,20.0,61,0.00,CLR,,0.05,236.0,WeatherDisplay:10.37,2013-04-29 16:56:00,
2013-04-29 18:01:00,52.3,42.1,30.21,NW,318,9.0,17.0,68,0.00,CLR,,0.05,443.0,WeatherDisplay:10.37,2013-04-29 17:01:00,
2013-04-29 18:10:00,50.4,41.8,30.22,NW,304,7.0,14.0,72,0.00,FEW,,0.05,176.0,WeatherDisplay:10.37,2013-04-29 17:10:00,
2013-04-29 18:15:00,49.8,42.2,30.22,WNW,293,3.0,9.0,75,0.00,SCT,,0.05,360.0,WeatherDisplay:10.37,2013-04-29 17:15:00,
2013-04-29 18:20:00,49.6,42.7,30.22,WNW,296,3.0,9.0,77,0.00,FEW,,0.05,364.0,WeatherDisplay:10.37,2013-04-29 17:20:00,
2013-04-29 18:30:00,49.7,43.1,30.22,NW,307,5.0,6.0,78,0.00,CLR,,0.05,366.0,WeatherDisplay:10.37,2013-04-29 17:30:00,
2013-04-29 18:40:00,50.2,43.6,30.23,NW,322,3.0,6.0,78,0.00,CLR,,0.05,171.0,WeatherDisplay:10.37,2013-04-29 17:40:00,
2013-04-29 18:45:00,49.9,42.6,30.23,NW,323,7.0,12.0,76,0.00,FEW,,0.05,220.0,WeatherDisplay:10.37,2013-04-29 17:45:00,
2013-04-29 18:50:00,49.3,42.4,30.23,NW,311,3.0,10.0,77,0.00,CLR,,0.05,316.0,WeatherDisplay:10.37,2013-04-29 17:50:00,
2013-04-29 18:55:00,49.4,43.1,30.23,NW,309,5.0,7.0,79,0.00,CLR,,0.05,227.0,WeatherDisplay:10.37,2013-04-29 17:55:00,
2013-04-29 19:00:00,49.4,43.2,30.23,NW,323,2.0,7.0,79,0.00,CLR,,0.05,190.0,WeatherDisplay:10.37,2013-04-29 18:00:00,
2013-04-29 19:10:00,49.3,42.7,30.23,NW,321,3.0,7.0,78,0.00,FEW,,0.05,186.0,WeatherDisplay:10.37,2013-04-29 18:10:00,
2013-04-29 19:15:00,49.4,42.8,30.23,NW,321,2.0,6.0,78,0.00,CLR,,0.05,237.0,WeatherDisplay:10.37,2013-04-29 18:15:00,
2013-04-29 19:20:00,49.7,42.8,30.23,NW,306,7.0,12.0,77,0.00,CLR,,0.05,165.0,WeatherDisplay:10.37,2013-04-29 18:20:00,
2013-04-29 19:30:00,50.0,41.0,30.23,West,279,7.0,12.0,71,0.00,FEW,,0.05,113.0,WeatherDisplay:10.37,2013-04-29 18:30:00,
2013-04-29 19:40:00,50.1,40.7,30.23,WNW,294,9.0,15.0,70,0.00,CLR,,0.05,181.0,WeatherDisplay:10.37,2013-04-29 18:40:00,
2013-04-29 19:45:00,50.2,40.8,30.23,WNW,282,6.0,12.0,70,0.00,CLR,,0.05,79.0,WeatherDisplay:10.37,2013-04-29 18:45:00,
2013-04-29 19:50:00,50.0,40.2,30.24,WNW,286,7.0,12.0,69,0.00,FEW,,0.05,56.0,WeatherDisplay:10.37,2013-04-29 18:50:00,
2013-04-29 20:01:00,49.4,40.0,30.24,West,280,6.0,10.0,70,0.00,BKN,,0.05,39.0,WeatherDisplay:10.37,2013-04-29 19:01:00,
2013-04-29 20:10:00,48.8,39.8,30.25,West,277,6.0,12.0,71,0.00,BKN,,0.05,26.0,WeatherDisplay:10.37,2013-04-29 19:10:00,
2013-04-29 20:15:00,48.3,39.0,30.25,West,281,7.0,10.0,70,0.00,BKN,,0.05,25.0,WeatherDisplay:10.37,2013-04-29 19:15:00,
2013-04-29 20:20:00,47.9,38.9,30.25,WNW,282,6.0,10.0,71,0.00,BKN,,0.05,23.0,WeatherDisplay:10.37,2013-04-29 19:20:00,
2013-04-29 20:31:00,47.1,38.5,30.25,West,280,2.0,5.0,72,0.00,BKN,,0.05,19.0,WeatherDisplay:10.37,2013-04-29 19:31:00,
2013-04-29 20:41:00,46.4,38.6,30.26,West,280,6.0,8.0,74,0.00,BKN,,0.05,14.0,WeatherDisplay:10.37,2013-04-29 19:41:00,
2013-04-29 20:46:00,46.0,38.6,30.26,West,278,3.0,7.0,75,0.00,BKN,,0.05,11.0,WeatherDisplay:10.37,2013-04-29 19:46:00,
2013-04-29 20:50:00,45.7,38.6,30.26,West,274,5.0,8.0,76,0.00,BKN,,0.05,9.0,WeatherDisplay:10.37,2013-04-29 19:50:00,
2013-04-29 21:02:00,45.2,38.8,30.27,West,265,3.0,7.0,78,0.00,CLR,,0.05,5.0,WeatherDisplay:10.37,2013-04-29 20:02:00,
2013-04-29 21:11:00,44.7,38.6,30.27,West,265,6.0,8.0,79,0.00,OVC,,0.05,0.0,WeatherDisplay:10.37,2013-04-29 20:11:00,
2013-04-29 21:16:00,44.5,38.4,30.27,West,265,5.0,8.0,79,0.00,OVC,,0.05,0.0,WeatherDisplay:10.37,2013-04-29 20:16:00,
2013-04-29 21:25:00,44.3,38.2,30.28,West,266,3.0,5.0,79,0.00,OVC,,0.05,0.0,WeatherDisplay:10.37,2013-04-29 20:25:00,
2013-04-29 21:31:00,44.3,38.5,30.28,West,266,1.0,6.0,80,0.00,OVC,,0.05,0.0,WeatherDisplay:10.37,2013-04-29 20:31:00,
2013-04-29 21:36:00,44.3,38.5,30.29,West,266,2.0,6.0,80,0.00,CLR,,0.05,0.0,WeatherDisplay:10.37,2013-04-29 20:36:00,
2013-04-29 21:45:00,43.8,38.0,30.29,West,266,2.0,4.0,80,0.00,CLR,,0.05,0.0,WeatherDisplay:10.37,2013-04-29 20:45:00,
2013-04-29 21:50:00,43.4,38.0,30.29,West,266,2.0,5.0,81,0.00,CLR,,0.05,0.0,WeatherDisplay:10.37,2013-04-29 20:50:00,
2013-04-29 21:55:00,43.1,37.7,30.29,West,266,3.0,5.0,81,0.00,CLR,,0.05,0.0,WeatherDisplay:10.37,2013-04-29 20:55:00,
2013-04-29 22:01:00,42.9,37.5,30.29,West,266,2.0,5.0,81,0.00,CLR,,0.05,0.0,WeatherDisplay:10.37,2013-04-29 21:01:00,
2013-04-29 22:11:00,42.4,37.3,30.29,West,266,3.0,6.0,82,0.00,CLR,,0.05,0.0,WeatherDisplay:10.37,2013-04-29 21:11:00,
2013-04-29 22:16:00,42.4,37.3,30.29,West,266,3.0,5.0,82,0.00,CLR,,0.05,0.0,WeatherDisplay:10.37,2013-04-29 21:16:00,
2013-04-29 22:21:00,42.4,37.6,30.29,West,266,2.0,5.0,83,0.00,CLR,,0.05,0.0,WeatherDisplay:10.37,2013-04-29 21:21:00,
2013-04-29 22:25:00,42.4,37.3,30.30,West,266,2.0,5.0,82,0.00,CLR,,0.05,0.0,WeatherDisplay:10.37,2013-04-29 21:25:00,
2013-04-29 22:31:00,42.3,37.5,30.30,West,266,2.0,5.0,83,0.00,CLR,,0.05,0.0,WeatherDisplay:10.37,2013-04-29 21:31:00,
2013-04-29 22:41:00,42.3,37.2,30.30,West,266,3.0,5.0,82,0.00,CLR,,0.05,0.0,WeatherDisplay:10.37,2013-04-29 21:41:00,
2013-04-29 22:46:00,42.3,37.2,30.30,West,266,3.0,5.0,82,0.00,CLR,,0.05,0.0,WeatherDisplay:10.37,2013-04-29 21:46:00,
2013-04-29 22:56:00,42.3,37.5,30.31,West,266,3.0,8.0,83,0.00,CLR,,0.05,0.0,WeatherDisplay:10.37,2013-04-29 21:56:00,
2013-04-29 23:01:00,42.4,37.6,30.31,WNW,283,5.0,8.0,83,0.00,CLR,,0.05,0.0,WeatherDisplay:10.37,2013-04-29 22:01:00,
2013-04-29 23:11:00,42.7,37.9,30.31,WNW,301,2.0,5.0,83,0.00,CLR,,0.05,0.0,WeatherDisplay:10.37,2013-04-29 22:11:00,
2013-04-29 23:16:00,42.7,37.9,30.31,WNW,301,2.0,5.0,83,0.00,CLR,,0.05,0.0,WeatherDisplay:10.37,2013-04-29 22:16:00,
2013-04-29 23:21:00,42.6,37.8,30.31,WNW,300,2.0,6.0,83,0.00,CLR,,0.05,0.0,WeatherDisplay:10.37,2013-04-29 22:21:00,
2013-04-29 23:26:00,42.6,37.8,30.31,WNW,300,2.0,4.0,83,0.00,CLR,,0.05,0.0,WeatherDisplay:10.37,2013-04-29 22:26:00,
2013-04-29 23:31:00,42.5,37.7,30.31,WNW,300,3.0,5.0,83,0.00,CLR,,0.05,0.0,WeatherDisplay:10.37,2013-04-29 22:31:00,
2013-04-29 23:41:00,42.4,37.9,30.31,WNW,299,3.0,8.0,84,0.00,CLR,,0.05,0.0,WeatherDisplay:10.37,2013-04-29 22:41:00,
2013-04-29 23:46:00,42.3,37.8,30.31,WNW,298,2.0,5.0,84,0.00,CLR,,0.05,0.0,WeatherDisplay:10.37,2013-04-29 22:46:00,
2013-04-29 23:56:00,42.2,37.7,30.31,WNW,298,3.0,5.0,84,0.00,CLR,,0.05,0.0,WeatherDisplay:10.37,2013-04-29 22:56:00,